• In Hungary
  • List of Countries
  • For 7 days
  • Water Temperature
  • Satellite Maps
  • Weather Map
  • News
  • Weather Widgets
  • user-avatar
    Login

    Hourly Weather Malewszczyzna

    Today, 19 July, Thursday

    Time Temperature Precipitation Wind Pressure Humidity
    00:00 +19°C° 0.5 mm 2 mps 729 mmHg 96%
    01:00 +19°C° 0.5 mm 2 mps 729 mmHg 96%
    02:00 +19°C° 0 mm 2 mps 729 mmHg 97%
    03:00 +19°C° 0.4 mm 2 mps 729 mmHg 97%
    04:00 +19°C° 0.4 mm 2 mps 729 mmHg 98%
    05:00 +18°C° 0.4 mm 2 mps 729 mmHg 98%
    06:00 +19°C° 0.2 mm 3 mps 730 mmHg 97%
    07:00 +20°C° 0.2 mm 3 mps 730 mmHg 95%
    08:00 +21°C° 0 mm 4 mps 730 mmHg 93%
    09:00 +22°C° 0.2 mm 4 mps 730 mmHg 90%
    10:00 +22°C° 0.2 mm 4 mps 731 mmHg 87%
    11:00 +23°C° 0.2 mm 4 mps 731 mmHg 85%
    12:00 +23°C° 0.4 mm 4 mps 731 mmHg 81%
    13:00 +25°C° 0.4 mm 5 mps 731 mmHg 77%
    14:00 +26°C° 0.4 mm 5 mps 731 mmHg 73%
    15:00 +26°C° 0.3 mm 5 mps 731 mmHg 73%
    16:00 +26°C° 0.3 mm 5 mps 731 mmHg 74%
    17:00 +26°C° 0.3 mm 5 mps 731 mmHg 74%
    18:00 +25°C° 0.3 mm 4 mps 731 mmHg 79%
    19:00 +23°C° 0.3 mm 4 mps 731 mmHg 83%
    20:00 +21°C° 0.3 mm 4 mps 731 mmHg 88%
    21:00 +21°C° 0.3 mm 4 mps 731 mmHg 90%
    22:00 +20°C° 0.3 mm 3 mps 731 mmHg 92%
    23:00 +19°C° 0.3 mm 3 mps 731 mmHg 94%

    Tomorrow, 20 July, Friday

    Time Temperature Precipitation Wind Pressure Humidity
    00:00 +19°C° 0 mm 3 mps 731 mmHg 94%
    01:00 +18°C° 0 mm 3 mps 731 mmHg 95%
    02:00 +18°C° 0 mm 3 mps 731 mmHg 95%
    03:00 +18°C° 0 mm 3 mps 731 mmHg 95%
    04:00 +17°C° 0 mm 3 mps 731 mmHg 96%
    05:00 +17°C° 0 mm 3 mps 731 mmHg 96%
    06:00 +18°C° 0 mm 4 mps 731 mmHg 93%
    07:00 +19°C° 0 mm 4 mps 732 mmHg 91%
    08:00 +20°C° 0 mm 4 mps 732 mmHg 88%
    09:00 +21°C° 0.1 mm 5 mps 732 mmHg 84%
    10:00 +22°C° 0.1 mm 5 mps 732 mmHg 79%
    11:00 +23°C° 0.1 mm 5 mps 732 mmHg 74%
    12:00 +24°C° 0.2 mm 6 mps 732 mmHg 71%
    13:00 +26°C° 0.2 mm 6 mps 732 mmHg 68%
    14:00 +26°C° 0.2 mm 6 mps 732 mmHg 64%
    15:00 +26°C° 0.3 mm 6 mps 732 mmHg 65%
    16:00 +26°C° 0.3 mm 6 mps 732 mmHg 66%
    17:00 +26°C° 0.3 mm 5 mps 732 mmHg 66%
    18:00 +25°C° 0.1 mm 5 mps 732 mmHg 71%
    19:00 +23°C° 0.1 mm 4 mps 732 mmHg 76%
    20:00 +21°C° 0.1 mm 4 mps 732 mmHg 81%
    21:00 +20°C° 0 mm 3 mps 732 mmHg 83%
    22:00 +20°C° 0 mm 3 mps 732 mmHg 86%
    23:00 +19°C° 0 mm 3 mps 732 mmHg 89%

    Day after tomorrow, 21 July, Saturday

    Time Temperature Precipitation Wind Pressure Humidity
    00:00 +18°C° 0 mm 3 mps 732 mmHg 91%
    01:00 +18°C° 0 mm 3 mps 732 mmHg 92%
    02:00 +17°C° 0 mm 3 mps 732 mmHg 94%
    03:00 +17°C° 0 mm 3 mps 732 mmHg 95%
    04:00 +17°C° 0 mm 3 mps 732 mmHg 96%
    05:00 +16°C° 0 mm 3 mps 732 mmHg 97%
    06:00 +18°C° 0 mm 3 mps 733 mmHg 92%
    07:00 +19°C° 0 mm 4 mps 733 mmHg 88%
    08:00 +20°C° 0 mm 4 mps 733 mmHg 83%
    09:00 +21°C° 0 mm 4 mps 733 mmHg 77%
    10:00 +22°C° 0 mm 4 mps 734 mmHg 70%
    11:00 +25°C° 0 mm 4 mps 734 mmHg 64%
    12:00 +25°C° 0 mm 4 mps 734 mmHg 62%
    13:00 +26°C° 0 mm 4 mps 733 mmHg 59%
    14:00 +27°C° 0 mm 4 mps 733 mmHg 57%
    15:00 +26°C° 0.2 mm 4 mps 733 mmHg 59%
    16:00 +26°C° 0.2 mm 3 mps 733 mmHg 61%
    17:00 +26°C° 0.2 mm 3 mps 733 mmHg 62%
    18:00 +24°C° 0.1 mm 3 mps 733 mmHg 67%
    19:00 +23°C° 0.1 mm 2 mps 733 mmHg 72%
    20:00 +21°C° 0.1 mm 2 mps 733 mmHg 76%
    21:00 +19°C° 0 mm 2 mps 733 mmHg 77%
    22:00 +18°C° 0 mm 2 mps 733 mmHg 77%
    23:00 +18°C° 0 mm 1 mps 733 mmHg 78%

    22 July, Sunday

    Time Temperature Precipitation Wind Pressure Humidity
    00:00 +18°C° 0 mm 1 mps 733 mmHg 78%
    01:00 +16°C° 0 mm 1 mps 733 mmHg 78%
    02:00 +16°C° 0 mm 1 mps 733 mmHg 79%
    03:00 +15°C° 0 mm 1 mps 733 mmHg 80%
    04:00 +15°C° 0 mm 1 mps 733 mmHg 81%
    05:00 +15°C° 0 mm 1 mps 733 mmHg 82%
    06:00 +18°C° 0 mm 1 mps 733 mmHg 78%
    07:00 +19°C° 0 mm 1 mps 733 mmHg 74%
    08:00 +21°C° 0 mm 1 mps 733 mmHg 69%
    09:00 +23°C° 0 mm 2 mps 733 mmHg 64%
    10:00 +24°C° 0 mm 2 mps 733 mmHg 60%
    11:00 +25°C° 0 mm 2 mps 733 mmHg 55%
    12:00 +26°C° 0 mm 2 mps 733 mmHg 53%
    13:00 +27°C° 0 mm 2 mps 732 mmHg 51%
    14:00 +27°C° 0 mm 2 mps 732 mmHg 49%
    15:00 +27°C° 0 mm 2 mps 732 mmHg 50%
    16:00 +27°C° 0 mm 2 mps 732 mmHg 51%
    17:00 +27°C° 0 mm 2 mps 732 mmHg 52%
    18:00 +26°C° 0 mm 1 mps 731 mmHg 58%
    19:00 +24°C° 0 mm 1 mps 731 mmHg 65%
    20:00 +22°C° 0 mm 1 mps 731 mmHg 71%
    21:00 +21°C° 0 mm 1 mps 731 mmHg 74%
    22:00 +20°C° 0 mm 1 mps 731 mmHg 77%
    23:00 +19°C° 0 mm 1 mps 731 mmHg 80%

    23 July, Monday

    Time Temperature Precipitation Wind Pressure Humidity
    00:00 +19°C° 0 mm 1 mps 731 mmHg 83%
    01:00 +18°C° 0 mm 1 mps 731 mmHg 86%
    02:00 +17°C° 0 mm 2 mps 731 mmHg 88%
    03:00 +17°C° 0 mm 2 mps 731 mmHg 90%
    04:00 +16°C° 0 mm 2 mps 732 mmHg 91%
    05:00 +16°C° 0 mm 2 mps 732 mmHg 92%
    06:00 +18°C° 0 mm 2 mps 732 mmHg 88%
    07:00 +20°C° 0 mm 2 mps 732 mmHg 83%
    08:00 +21°C° 0 mm 2 mps 732 mmHg 78%
    09:00 +22°C° 0.2 mm 3 mps 733 mmHg 73%
    10:00 +25°C° 0.2 mm 3 mps 733 mmHg 68%
    11:00 +26°C° 0.2 mm 4 mps 733 mmHg 63%
    12:00 +26°C° 0.1 mm 4 mps 732 mmHg 61%
    13:00 +27°C° 0.1 mm 4 mps 732 mmHg 59%
    14:00 +27°C° 0.1 mm 4 mps 732 mmHg 57%
    15:00 +27°C° 0.1 mm 4 mps 732 mmHg 59%
    16:00 +27°C° 0.1 mm 4 mps 732 mmHg 60%
    17:00 +27°C° 0.1 mm 4 mps 732 mmHg 62%
    18:00 +25°C° 0.1 mm 3 mps 732 mmHg 67%
    19:00 +24°C° 0.1 mm 3 mps 733 mmHg 73%
    20:00 +21°C° 0.1 mm 2 mps 733 mmHg 79%
    21:00 +20°C° 0 mm 2 mps 733 mmHg 81%
    22:00 +19°C° 0 mm 2 mps 733 mmHg 82%
    23:00 +18°C° 0 mm 2 mps 733 mmHg 84%

    24 July, Tuesday

    Time Temperature Precipitation Wind Pressure Humidity
    00:00 +18°C° 0 mm 2 mps 733 mmHg 84%
    01:00 +17°C° 0 mm 2 mps 733 mmHg 85%
    02:00 +17°C° 0 mm 2 mps 733 mmHg 85%
    03:00 +17°C° 0 mm 2 mps 734 mmHg 86%
    04:00 +16°C° 0 mm 2 mps 734 mmHg 88%
    05:00 +16°C° 0 mm 2 mps 734 mmHg 89%
    06:00 +17°C° 0 mm 2 mps 735 mmHg 84%
    07:00 +19°C° 0 mm 2 mps 735 mmHg 80%
    08:00 +21°C° 0 mm 2 mps 735 mmHg 76%
    09:00 +23°C° 0 mm 2 mps 735 mmHg 71%
    10:00 +24°C° 0 mm 3 mps 735 mmHg 65%
    11:00 +26°C° 0 mm 3 mps 735 mmHg 60%
    12:00 +26°C° 0.1 mm 3 mps 735 mmHg 58%
    13:00 +27°C° 0.1 mm 3 mps 735 mmHg 57%
    14:00 +27°C° 0.1 mm 3 mps 735 mmHg 55%
    15:00 +27°C° 0 mm 3 mps 735 mmHg 56%
    16:00 +27°C° 0 mm 3 mps 735 mmHg 56%
    17:00 +27°C° 0 mm 3 mps 735 mmHg 57%
    18:00 +25°C° 0 mm 2 mps 735 mmHg 62%
    19:00 +24°C° 0 mm 2 mps 735 mmHg 67%
    20:00 +22°C° 0 mm 1 mps 735 mmHg 73%
    21:00 +21°C° 0 mm 1 mps 735 mmHg 75%
    22:00 +20°C° 0 mm 1 mps 735 mmHg 77%
    23:00 +19°C° 0 mm 1 mps 735 mmHg 80%
    Show more